Regional Weather Roundup
Issued by NWS

Home | Current Version | Previous Version | Text Only | Print | Product List | Glossary On
Versions: 1 2 3 4 5 6 7 8 9 10 11 12 13 14 15 16 17 18 19 20 21 22 23 24 25 26 27 28
000
ASUS46 KPQR 200610
RWROR

OREGON REGIONAL WEATHER ROUNDUP
NATIONAL WEATHER SERVICE PORTLAND OR
1100 PM PDT SAT APR 19 2014

NOTE: "FAIR" INDICATES FEW OR NO CLOUDS BELOW 12,000 FEET WITH
NO SIGNIFICANT WEATHER AND/OR OBSTRUCTIONS TO VISIBILITY.

ORZ001>013-200700-
NORTHWEST OREGON


CITY           SKY/WX    TMP DP  RH WIND       PRES   REMARKS
ASTORIA        CLOUDY    47  41  80 S5        30.21R
6HR MIN TEMP:  47; 6HR MAX TEMP:  54; 6HR PCP:  0.02;

NEWPORT        MOCLDY    46  46 100 S5        30.28R FOG
PORTLAND       PTCLDY    50  41  71 S5        30.24R
6HR MIN TEMP:  49; 6HR MAX TEMP:  59; 6HR PCP: TRACE;

VANCOUVER WA   CLEAR     45  38  76 CALM      30.23R
6HR MIN TEMP:  44; 6HR MAX TEMP:  58; 6HR PCP: TRACE;

SCAPPOOSE      MOCLDY    42  41  96 W5        30.22R
6HR MIN TEMP:  41; 6HR MAX TEMP:  57; 6HR PCP: TRACE;

HILLSBORO      PTCLDY    44  40  85 N3        30.23R
6HR MIN TEMP:  43; 6HR MAX TEMP:  57; 6HR PCP: TRACE;

AURORA         CLEAR     46  42  86 SW5       30.24R
6HR MIN TEMP:  45; 6HR MAX TEMP:  57; 6HR PCP:  0.01;

MCMINNVILLE    CLOUDY    47  44  90 SW7       30.24R
6HR MIN TEMP:  45; 6HR MAX TEMP:  59; 6HR PCP: TRACE;

SALEM          PTCLDY    47  41  80 S3        30.24R
6HR MIN TEMP:  46; 6HR MAX TEMP:  57; 6HR PCP: TRACE;

CORVALLIS      CLEAR     43  39  87 CALM      30.26R
EUGENE         PTCLDY    46  42  86 S5        30.26R
6HR MIN TEMP:  45; 6HR MAX TEMP:  59;

$$

ORZ021-028-200700-
SOUTHWEST OREGON


CITY           SKY/WX    TMP DP  RH WIND       PRES   REMARKS
NORTH BEND     CLEAR     46  46 100 S5        30.28R
6HR MIN TEMP:  46; 6HR MAX TEMP:  59;

BROOKINGS      CLEAR     45  44  96 CALM      30.26S FOG
ROSEBURG       CLEAR     48  40  73 CALM      30.26R
6HR MIN TEMP:  47; 6HR MAX TEMP:  61;

SEXTON SUMMIT  CLEAR     38  33  82 N3        30.21S
6HR MIN TEMP:  37; 6HR MAX TEMP:  49;

MEDFORD        PTCLDY    48  38  68 NE6       30.23R
6HR MIN TEMP:  48; 6HR MAX TEMP:  62;

$$

ORZ009-041-200700-
COLUMBIA GORGE


CITY           SKY/WX    TMP DP  RH WIND       PRES   REMARKS
TROUTDALE      CLEAR     49  42  77 SW5       30.22R
6HR MIN TEMP:  49; 6HR MAX TEMP:  59; 6HR PCP: TRACE;

THE DALLES     CLOUDY    50  40  68 NW5       30.19R
6HR MIN TEMP:  47; 6HR MAX TEMP:  63; 6HR PCP: TRACE;

$$

ORZ029>031-042>050-061>064-200700-
EASTERN OREGON


CITY           SKY/WX    TMP DP  RH WIND       PRES   REMARKS
REDMOND        CLEAR     34  29  82 CALM      30.19R
6HR MIN TEMP:  34; 6HR MAX TEMP:  56;

BEND           CLEAR     41  28  60 SW8       30.20R
KLAMATH FALLS  PTCLDY    37  30  75 W12       30.21R WCI  29
6HR MIN TEMP:  37; 6HR MAX TEMP:  57;

LAKEVIEW       MOCLDY    39  23  52 NE5       30.21R
HERMISTON      CLEAR     50  39  66 SW10      30.16R
6HR MIN TEMP:  48; 6HR MAX TEMP:  63;

PENDLETON      CLEAR     46  37  71 NW16      30.15R
6HR MIN TEMP:  46; 6HR MAX TEMP:  58;

JOHN DAY       PTCLDY    45  32  61 W6        30.16R
MEACHAM        CLOUDY    41  34  76 VRB5      30.15R
6HR MIN TEMP:  41; 6HR MAX TEMP:  52; 6HR PCP: TRACE;

LA GRANDE      MOCLDY    45  30  57 NW8       30.14R
6HR MIN TEMP:  45; 6HR MAX TEMP:  61;

BAKER CITY     MOCLDY    45  33  63 NW20      30.10R
6HR MIN TEMP:  44; 6HR MAX TEMP:  68;

BURNS          PTCLDY    43  24  47 W10       30.15R
6HR MIN TEMP:  43; 6HR MAX TEMP:  65;

ROME             N/A     53  25  33 NW10      30.09R
6HR MIN TEMP:  53; 6HR MAX TEMP:  75;

ONTARIO        CLOUDY    57  33  40 NW13      30.07R
6HR MIN TEMP:  57; 6HR MAX TEMP:  78;

$$



USA.gov is the U.S. government's official web portal to all federal, state and local government web resources and services.